Weather History for LKHO - January, 2014

Change the Weather History Date:

Tuesday, January 14, 2014

  Actual Average Record
Temperature  
Mean Temperature 36 °F -  
Max Temperature 47 °F - - ()
Min Temperature 26 °F - - ()
Degree Days  
Heating Degree Days 28    
Moisture  
Dew Point 33 °F    
Average Humidity 83    
Maximum Humidity 95    
Minimum Humidity 56    
Precipitation  
Precipitation 0.01 in - - ()
Sea Level Pressure  
Sea Level Pressure 29.83 in    
Wind  
Wind Speed 5 mph ()    
Max Wind Speed 22 mph    
Max Gust Speed -    
Visibility 5.6 miles    
Events Rain    
T = Trace of Precipitation, MM = Missing Value Source: Averaged Metar Reports

Daily Weather History Graph

Daily Weather History Graph

Search for Another Location

Airport or City:

Trip Planner

Search our weather history database for the weather conditions in past years. The results will help you decide how hot, cold, wet, or windy it might be!

Date:

Astronomy

Jan. 14, 2014 Rise Set
Actual Time 7:40 AM CET 4:17 PM CET
Civil Twilight 7:04 AM CET 4:53 PM CET
Nautical Twilight 6:24 AM CET 5:33 PM CET
Astronomical Twilight 5:46 AM CET 6:11 PM CET
Moon 3:09 PM CET (1/14) 5:59 AM CET (1/14)
Length of Visible Light 9h 49m
Length of Day
8h 36m
Waxing Gibbous, 97% of the Moon is Illuminated
Jan 14
Waxing Gibbous
Jan 16
Full
Jan 24
Last Quarter
Jan 30
New
Feb 6
First Quarter

Hourly Weather History & Observations

Time (CET) Temp. Dew Point Humidity Pressure Visibility Wind Dir Wind Speed Gust Speed Precip Events Conditions
12:00 AM 28 °F 25 °F 84% 29.99 in 5 mi West 2.2 mph - -   Mist
1:00 AM 28 °F 27 °F 92% 29.98 in 3 mi ESE 2.2 mph - -   Mist
2:00 AM 28 °F 26 °F 91% 29.97 in 3 mi Calm Calm - -   Mist
3:00 AM 29 °F 28 °F 95% 29.95 in 3 mi West 4.5 mph - -   Mist
4:00 AM 30 °F 28 °F 91% 29.93 in 2 mi West 2.2 mph - -   Mist
5:00 AM 30 °F 29 °F 94% 29.93 in 2 mi West 4.5 mph - -   Mist
6:00 AM 30 °F 29 °F 93% 29.90 in 2 mi South 2.2 mph - -   Mist
7:00 AM 31 °F 30 °F 93% 29.89 in 3 mi West 2.2 mph - -   Mist
8:00 AM 31 °F 30 °F 93% 29.87 in 2 mi ENE 2.2 mph - -   Mist
9:00 AM 32 °F 30 °F 91% 29.87 in 2 mi West 2.2 mph - -   Mist
10:00 AM 33 °F 31 °F 88% 29.85 in 2 mi South 2.2 mph - -   Mist
11:00 AM 34 °F 32 °F 88% 29.84 in 3 mi NE 2.2 mph - -   Mist
12:00 PM 37 °F 34 °F 86% 29.81 in 4 mi SE 2.2 mph - -   Mist
1:00 PM 46 °F 39 °F 70% 29.75 in 9 mi SSE 11.2 mph - -   Overcast
2:00 PM 47 °F 38 °F 61% 29.74 in 9 mi SE 11.2 mph - -   Overcast
3:00 PM 47 °F 36 °F 56% 29.73 in 9 mi SSE 15.7 mph - -   Overcast
4:00 PM 44 °F 38 °F 71% 29.72 in 9 mi SSE 22.4 mph - - Rain Light Rain
5:00 PM 43 °F 38 °F 78% 29.71 in 7 mi SE 20.1 mph - - Rain Light Rain
6:00 PM 44 °F 38 °F 73% 29.72 in 7 mi SE 15.7 mph - - Rain Light Rain
7:00 PM 43 °F 38 °F 75% 29.73 in 9 mi SE 13.4 mph - - Rain Light Rain
8:00 PM 43 °F 37 °F 72% 29.73 in 11 mi SE 11.2 mph - - Rain Light Rain
9:00 PM 42 °F 39 °F 83% 29.74 in 12 mi SSE 8.9 mph - - Rain Light Rain
10:00 PM 42 °F 38 °F 83% 29.76 in 12 mi SSE 6.7 mph - - Rain Light Drizzle
11:00 PM 41 °F 38 °F 86% 29.77 in 5 mi South 11.2 mph - - Rain Light Rain